Flag for India Weather past 2 weeks in Domkal, West Bengal, India

Now
77 °F

Haze.


Feels Like: 79 °F
Forecast: 67 / 81 °F
Wind: No wind

Location: Calcutta / Dum Dum

Current Time: Mar 3, 2015 at 10:33:21 PM

Latest Report: Mar 3, 2015 at 9:50 PM


Visibility: 1 mi

Pressure: 29.83 "Hg

Humidity: 69%

Dew point: 66 °F

Location of DomkalLocation

Historic Weather in Domkal — Graph

°F

Domkal temperature yesterday

Maximum temperature yesterday: 93 °F (at 1:20 PM)
Minimum temperature yesterday: 68 °F (at 5:50 AM)
Average temperature yesterday: 80 °F

Past Weeks' High & Low Weather Summary

 TemperatureHumidityPressure
High93 °F (Feb 21, 5:20 PM)100% (Feb 17, 6:20 AM)30.01 "Hg (Feb 17, 6:20 AM)
Low66 °F (Feb 17, 2:50 AM)30% (Mar 2, 3:20 PM)29.68 "Hg (Feb 26, 6:20 PM)
Average79 °F70%29.86 "Hg
* Reported Feb 16 8:50 PM — Mar 3 9:20 PM, Domkal, Weather by CustomWeather, © 2015

Note: Actual official high and low records may vary slightly from our data, if they occured in-between our weather recording intervals... More about our weather records

Advertising

Domkal weather history for previous 24 hours

 ConditionsComfort  
Time TempWeatherWind HumidityBarometerVisibility
9:20 PM
Tue, Mar 3
77 °FHaze.No wind69%29.83 "Hg1 mi
8:50 PM77 °FFog.3 mph69%29.83 "Hg1 mi
8:20 PM77 °FHaze.No wind65%29.80 "Hg1 mi
7:50 PM79 °FHaze.3 mph61%29.80 "Hg1 mi
7:20 PM81 °FHaze.3 mph54%29.77 "Hg1 mi
6:50 PM81 °FHaze.3 mph54%29.77 "Hg1 mi
6:20 PM82 °FHaze.No wind51%29.77 "Hg2 mi
5:50 PM84 °FHaze.5 mph48%29.74 "Hg2 mi
5:20 PM84 °FHaze.5 mph48%29.74 "Hg2 mi
4:50 PM86 °FHaze.6 mph46%29.74 "Hg2 mi
4:20 PM88 °FHaze.6 mph43%29.77 "Hg2 mi
3:50 PM88 °FHaze.6 mph43%29.77 "Hg2 mi
3:20 PM90 °FHaze.8 mph41%29.77 "Hg2 mi
2:50 PM90 °FHaze.6 mph41%29.77 "Hg2 mi
2:20 PM88 °FHaze.7 mph43%29.80 "Hg2 mi
1:50 PM88 °FHaze.7 mph46%29.80 "Hg2 mi
1:20 PM88 °FHaze.7 mph46%29.83 "Hg2 mi
12:50 PM86 °FHaze.7 mph49%29.83 "Hg2 mi
12:20 PM84 °FHaze.7 mph51%29.86 "Hg1 mi
11:50 AM84 °FHaze.7 mph51%29.89 "Hg1 mi
11:20 AM84 °FHaze.6 mph51%29.89 "Hg1 mi
10:50 AM82 °FScattered clouds.6 mph55%29.92 "Hg1 mi
10:20 AM81 °FScattered clouds.6 mph58%29.92 "Hg1 mi
9:50 AM81 °FPartly sunny.6 mph58%29.92 "Hg1 mi
9:20 AM79 °FScattered clouds.6 mph58%29.92 "Hg2 mi
8:50 AM77 °FScattered clouds.No wind61%29.92 "Hg1 mi
8:20 AM75 °FScattered clouds.No wind69%29.92 "Hg1 mi
7:50 AM72 °FFog.3 mph78%29.89 "Hg1 mi
7:20 AM70 °FFog.No wind78%29.89 "Hg1 mi
6:50 AM70 °FFog.3 mph83%29.86 "Hg1 mi
6:20 AM70 °FFog.5 mph83%29.86 "Hg1 mi
5:50 AM70 °FFog.5 mph83%29.86 "Hg1 mi
5:20 AM70 °FFog.5 mph83%29.86 "Hg1 mi
4:50 AM70 °FFog.3 mph83%29.83 "Hg1 mi
4:20 AM70 °FFog.3 mph83%29.89 "Hg1 mi
3:50 AM70 °FFog.3 mph83%29.86 "Hg1 mi
3:20 AM72 °FFog.3 mph78%29.86 "Hg1 mi
2:50 AM72 °FFog.No wind78%29.86 "Hg1 mi
2:20 AM72 °FFog.3 mph78%29.86 "Hg1 mi
1:50 AM72 °FFog.3 mph78%29.89 "Hg1 mi
1:20 AM72 °FFog.No wind78%29.89 "Hg1 mi
12:50 AM72 °FFog.3 mph78%29.92 "Hg1 mi
12:20 AM72 °FFog.3 mph78%29.92 "Hg1 mi
11:50 PM
Mon, Mar 2
72 °FHaze.3 mph73%29.92 "Hg1 mi
11:20 PM72 °FHaze.3 mph73%29.92 "Hg1 mi
10:50 PM72 °FHaze.3 mph73%29.95 "Hg1 mi
10:20 PM73 °FHaze.8 mph69%29.92 "Hg2 mi
Weather by CustomWeather, © 2015

See weather overviewHow to use our weather pages